{"data":{"norad_id":55599,"epoch":"2026-05-25T02:30:50.461344Z","epoch_age_seconds":65894,"freshness":"FRESH","line1":"1 55599U 23020AG  26145.10475071 -.00000817  00000+0 -20157-4 0  9999","line2":"2 55599  43.0055 282.8651 0001917 273.8405  86.2227 15.27570774180721","mean_motion":15.27570774,"eccentricity":0.0001917,"inclination_deg":43.0055,"raan_deg":282.8651,"arg_perigee_deg":273.8405,"mean_anomaly_deg":86.2227,"bstar":-2.0157e-5,"rev_number":18072,"period_min":94.267318052263,"perigee_km":481.7614274712,"apogee_km":484.39201681227,"semimajor_km":6861.2137221417,"source":"CELESTRAK","updated_at":"2026-05-25T13:38:17.840962Z"}}